Change the Weather History Date:

Saturday, February 15, 2014

  Actual Average (KAKO) Record (KAKO)
Temperature  
Mean Temperature 36 °F 31 °F  
Max Temperature 43 °F 43 °F 64 °F (1947)
Min Temperature 28 °F 19 °F -5 °F (1966)
Degree Days  
Heating Degree Days 30    
Month to date heating degree days  
Cooling Degree Days 0    
Month to date cooling degree days  
Moisture  
Dew Point 28 °F    
Average Humidity 78    
Maximum Humidity 92    
Minimum Humidity 52    
Precipitation  
Precipitation 0.00 in 0.02 in 0.17 in (1938)
Month to date precipitation 0.21  
Year to date precipitation 0.51  
Sea Level Pressure  
Sea Level Pressure 29.97 in    
Wind  
Wind Speed 9 mph (NW)    
Max Wind Speed 26 mph    
Max Gust Speed 37 mph    
Visibility 10 miles    
Events      
T = Trace of Precipitation, MM = Missing Value Source: NWS Daily Summary

Daily Weather History Graph

Daily Weather History Graph

Search for Another Location

Airport or City:

Trip Planner

Search our weather history database for the weather conditions in past years. The results will help you decide how hot, cold, wet, or windy it might be!

Date:

Astronomy

Feb. 15, 2014 Rise Set
Actual Time 6:48 AM MST 5:30 PM MST
Civil Twilight 6:20 AM MST 5:58 PM MST
Nautical Twilight 5:48 AM MST 6:30 PM MST
Astronomical Twilight 5:17 AM MST 7:02 PM MST
Moon 6:33 PM MST (2/15) 6:48 AM MST (2/15)
Length of Visible Light 11h 38m
Length of Day
10h 42m
Waxing Gibbous, 99% of the Moon is Illuminated
Feb 15
Waxing Gibbous
Feb 22
Last Quarter
Mar 1
New
Mar 8
First Quarter
Mar 16
Full

Hourly Weather History & Observations

Time (MST) Temp. Windchill Dew Point Humidity Pressure Visibility Wind Dir Wind Speed Gust Speed Precip Events Conditions
12:15 AM 32.0 °F 23.6 °F 29.1 °F 89% 29.81 in 10.0 mi WSW 10.4 mph - N/A   Clear
12:35 AM 31.6 °F 23.7 °F 27.9 °F 86% 29.79 in 10.0 mi WSW 9.2 mph - N/A   Clear
12:55 AM 30.0 °F 21.1 °F 27.5 °F 90% 29.78 in 10.0 mi West 10.4 mph - N/A   Clear
1:15 AM 28.6 °F 21.5 °F 26.6 °F 92% 29.78 in 10.0 mi West 6.9 mph - N/A   Clear
1:35 AM 28.8 °F 21.7 °F 26.6 °F 92% 29.78 in 10.0 mi West 6.9 mph - N/A   Clear
1:55 AM 29.1 °F 20.6 °F 26.6 °F 90% 29.76 in 10.0 mi West 9.2 mph - N/A   Clear
2:15 AM 28.8 °F 19.5 °F 25.7 °F 88% 29.76 in 10.0 mi West 10.4 mph - N/A   Clear
2:35 AM 30.2 °F 22.6 °F 26.1 °F 85% 29.76 in 10.0 mi West 8.1 mph - N/A   Clear
2:55 AM 30.0 °F 26.5 °F 25.5 °F 83% 29.76 in 10.0 mi NNE 3.5 mph - N/A   Clear
3:15 AM 32.2 °F - 26.1 °F 78% 29.76 in 10.0 mi Calm Calm - N/A   Clear
3:35 AM 28.9 °F - 25.3 °F 86% 29.76 in 10.0 mi Calm Calm - N/A   Clear
3:55 AM 29.5 °F - 25.9 °F 86% 29.77 in 10.0 mi Calm Calm - N/A   Clear
4:15 AM 29.3 °F - 25.9 °F 87% 29.78 in 10.0 mi Calm Calm - N/A   Clear
4:35 AM 30.7 °F - 26.4 °F 84% 29.78 in 10.0 mi Calm Calm - N/A   Scattered Clouds
4:55 AM 28.6 °F 21.5 °F 25.3 °F 88% 29.78 in 10.0 mi West 6.9 mph - N/A   Scattered Clouds
5:15 AM 30.0 °F 21.7 °F 26.6 °F 87% 29.79 in 10.0 mi West 9.2 mph - N/A   Scattered Clouds
5:35 AM 32.5 °F 25.5 °F 27.5 °F 82% 29.80 in 10.0 mi West 8.1 mph - N/A   Mostly Cloudy
5:55 AM 33.1 °F 27.7 °F 28.2 °F 82% 29.79 in 10.0 mi West 5.8 mph - N/A   Mostly Cloudy
6:15 AM 32.4 °F 25.3 °F 28.4 °F 85% 29.79 in 10.0 mi West 8.1 mph - N/A   Scattered Clouds
6:35 AM 36.5 °F 25.2 °F 31.3 °F 81% 29.84 in 10.0 mi North 23.0 mph 32.2 mph N/A   Mostly Cloudy
6:55 AM 37.9 °F 26.8 °F 33.8 °F 85% 29.87 in 10.0 mi North 24.2 mph 31.1 mph N/A   Overcast
7:15 AM 35.6 °F 24.2 °F 32.5 °F 89% 29.89 in 10.0 mi North 21.9 mph 27.6 mph N/A   Overcast
7:35 AM 34.7 °F 22.2 °F 32.0 °F 90% 29.92 in 10.0 mi North 25.3 mph 36.8 mph N/A   Overcast
7:55 AM 34.7 °F 22.2 °F 32.0 °F 90% 29.90 in 10.0 mi NNE 25.3 mph 33.4 mph N/A   Overcast
8:15 AM 35.4 °F 23.0 °F 32.0 °F 87% 29.92 in 10.0 mi North 26.5 mph - N/A   Mostly Cloudy
8:35 AM 35.8 °F 24.8 °F 32.0 °F 86% 29.94 in 10.0 mi NNE 20.7 mph 26.5 mph N/A   Scattered Clouds
8:55 AM 35.2 °F 24.1 °F 31.6 °F 87% 29.96 in 10.0 mi NNE 20.7 mph 28.8 mph N/A   Scattered Clouds
9:15 AM 35.2 °F 23.0 °F 31.1 °F 85% 29.97 in 10.0 mi NNE 25.3 mph 33.4 mph N/A   Mostly Cloudy
9:35 AM 35.6 °F 24.5 °F 31.6 °F 85% 29.98 in 10.0 mi NNE 20.7 mph 24.2 mph N/A   Mostly Cloudy
9:55 AM 37.2 °F 27.9 °F 31.6 °F 80% 30.00 in 10.0 mi NNE 16.1 mph 26.5 mph N/A   Scattered Clouds
10:15 AM 37.6 °F 28.8 °F 31.5 °F 79% 30.03 in 10.0 mi NE 15.0 mph 21.9 mph N/A   Scattered Clouds
10:35 AM 38.5 °F 31.6 °F 31.8 °F 77% 30.04 in 10.0 mi NNE 10.4 mph 13.8 mph N/A   Overcast
10:55 AM 38.8 °F 30.4 °F 31.8 °F 76% 30.04 in 10.0 mi NNE 15.0 mph - N/A   Overcast
11:15 AM 39.2 °F 31.6 °F 32.0 °F 75% 30.05 in 10.0 mi North 12.7 mph - N/A   Overcast
11:35 AM 39.9 °F 32.5 °F 32.0 °F 73% 30.06 in 10.0 mi North 12.7 mph - N/A   Overcast
11:55 AM 39.0 °F 33.4 °F 31.3 °F 74% 30.07 in 10.0 mi NNW 8.1 mph - N/A   Overcast
12:15 PM 41.0 °F 33.9 °F 31.5 °F 69% 30.05 in 10.0 mi North 12.7 mph 18.4 mph N/A   Mostly Cloudy
12:35 PM 40.8 °F 33.3 °F 31.6 °F 70% 30.06 in 10.0 mi NNW 13.8 mph - N/A   Mostly Cloudy
12:55 PM 41.7 °F 35.6 °F 30.7 °F 65% 30.06 in 10.0 mi NNW 10.4 mph - N/A   Overcast
1:15 PM 41.7 °F 36.1 °F 30.6 °F 65% 30.06 in 10.0 mi NNW 9.2 mph - N/A   Overcast
1:35 PM 42.1 °F 38.4 °F 29.5 °F 61% 30.06 in 10.0 mi NNW 5.8 mph - N/A   Mostly Cloudy
1:55 PM 43.0 °F 36.8 °F 28.9 °F 58% 30.06 in 10.0 mi North 11.5 mph - N/A   Scattered Clouds
2:15 PM 43.5 °F 37.9 °F 27.5 °F 53% 30.07 in 10.0 mi NNW 10.4 mph - N/A   Scattered Clouds
2:35 PM 43.0 °F 37.2 °F 26.8 °F 53% 30.06 in 10.0 mi North 10.4 mph - N/A   Scattered Clouds
2:55 PM 42.4 °F 37.0 °F 26.1 °F 52% 30.07 in 10.0 mi North 9.2 mph - N/A   Clear
3:15 PM 41.2 °F 38.2 °F 24.6 °F 52% 30.07 in 10.0 mi NNW 4.6 mph - N/A   Scattered Clouds
3:35 PM 41.7 °F 36.7 °F 25.9 °F 53% 30.07 in 10.0 mi NNW 8.1 mph - N/A   Scattered Clouds
3:55 PM 41.7 °F 38.8 °F 25.7 °F 53% 30.07 in 10.0 mi NNW 4.6 mph - N/A   Clear
4:15 PM 40.5 °F 36.5 °F 26.8 °F 58% 30.06 in 10.0 mi NNW 5.8 mph - N/A   Clear
4:35 PM 39.4 °F 37.2 °F 27.3 °F 62% 30.08 in 10.0 mi NNW 3.5 mph - N/A   Clear
4:55 PM 36.7 °F 34.1 °F 27.9 °F 70% 30.09 in 10.0 mi NNW 3.5 mph - N/A   Clear
5:15 PM 36.5 °F - 27.9 °F 71% 30.09 in 10.0 mi Calm Calm - N/A   Clear
5:35 PM 35.8 °F - 28.0 °F 73% 30.09 in 10.0 mi Calm Calm - N/A   Clear
5:55 PM 35.2 °F 31.2 °F 27.7 °F 74% 30.09 in 10.0 mi West 4.6 mph - N/A   Clear
6:15 PM 34.9 °F 32.0 °F 26.2 °F 71% 30.09 in 10.0 mi WSW 3.5 mph - N/A   Clear
6:35 PM 33.3 °F - 25.9 °F 74% 30.09 in 10.0 mi Calm Calm - N/A   Clear
6:55 PM 32.9 °F 28.5 °F 25.2 °F 73% 30.09 in 10.0 mi West 4.6 mph - N/A   Clear
7:15 PM 32.0 °F 27.5 °F 25.7 °F 78% 30.09 in 10.0 mi West 4.6 mph - N/A   Clear
7:35 PM 31.1 °F 26.4 °F 26.2 °F 82% 30.09 in 10.0 mi West 4.6 mph - N/A   Clear
7:55 PM 31.5 °F 26.8 °F 26.6 °F 82% 30.09 in 10.0 mi WNW 4.6 mph - N/A   Clear
8:15 PM 31.6 °F 26.0 °F 26.8 °F 82% 30.09 in 10.0 mi West 5.8 mph - N/A   Clear
8:35 PM 32.0 °F 28.7 °F 27.3 °F 83% 30.07 in 10.0 mi West 3.5 mph - N/A   Clear
8:55 PM 31.1 °F 26.4 °F 27.0 °F 85% 30.08 in 10.0 mi West 4.6 mph - N/A   Clear
9:15 PM 30.2 °F 24.3 °F 27.0 °F 88% 30.08 in 10.0 mi WSW 5.8 mph - N/A   Clear
9:35 PM 29.7 °F 24.7 °F 26.6 °F 88% 30.09 in 10.0 mi West 4.6 mph - N/A   Clear
9:55 PM 30.2 °F 24.3 °F 26.8 °F 87% 30.09 in 10.0 mi West 5.8 mph - N/A   Clear
10:15 PM 29.8 °F 23.9 °F 27.0 °F 89% 30.07 in 10.0 mi West 5.8 mph - N/A   Clear
10:35 PM 31.5 °F 26.8 °F 27.9 °F 87% 30.05 in 10.0 mi WSW 4.6 mph - N/A   Clear
10:55 PM 31.6 °F 27.0 °F 27.3 °F 84% 30.05 in 10.0 mi West 4.6 mph - N/A   Clear
11:15 PM 32.0 °F 27.5 °F 27.9 °F 85% 30.03 in 10.0 mi SW 4.6 mph - N/A   Clear
11:35 PM 31.3 °F - 27.5 °F 86% 30.02 in 10.0 mi Calm Calm - N/A   Clear
11:55 PM 32.0 °F - 27.5 °F 83% 30.02 in 10.0 mi Calm Calm - N/A   Clear